Regional Weather Roundup
Issued by NWS Newport/Morehead, NC

Current Version | Previous Version | Text Only | Print | Product List | Glossary On
Versions: 1 2 3 4 5 6 7 8 9 10 11 12 13 14 15 16 17 18 19 20 21 22 23 24 25 26 27 28 29 30 31 32 33 34 35 36 37 38 39 40 41 42 43 44 45 46 47 48 49 50
000 ASUS42 KMHX 010113 RWRMHX WEATHER ROUNDUP FOR EASTERN NORTH CAROLINA NATIONAL WEATHER SERVICE NEWPORT/MOREHEAD CITY NC 900 PM EDT SAT APR 30 2016 NOTE: "FAIR" INDICATES FEW OR NO CLOUDS BELOW 12,000 FEET WITH NO SIGNIFICANT WEATHER AND/OR OBSTRUCTIONS TO VISIBILITY NCZ015>017-031-032-045>047-102-103-010200- NORTH COAST CITY SKY/WX TMP DP RH WIND PRES REMARKS EDENTON CLOUDY 58 54 85 E7 30.20R ELIZABETH CITY CLOUDY 55 51 86 NE12 30.21R KITTY HAWK PTCLDY 53 52 94 NE7 30.19R MANTEO NOT AVBL $$ NCZ045>047-081-094-103-104-010200- CENTRAL COAST CITY SKY/WX TMP DP RH WIND PRES REMARKS FRISCO CLOUDY 56 54 93 NE5 30.19R SWANQUARTER NOT AVBL $$ NCZ095-097-098-100-101-010200- SOUTHERN COAST CITY SKY/WX TMP DP RH WIND PRES REMARKS BEAUFORT CLOUDY 62 57 83 NE8 30.17R CEDAR ISLAND NOT AVBL JACKSONVILLE MOCLDY 64 56 75 E13 30.14R PINEY ISLAND NOT AVBL WILMINGTON MOCLDY 65 58 78 E14G22 30.13S $$ NCZ011>013-027>030-043-044-078>080-089-090>093-098-010200- COASTAL PLAIN CITY SKY/WX TMP DP RH WIND PRES REMARKS AHOSKIE MOCLDY 58 54 85 NE6 30.17S CLINTON MOCLDY 64 60 85 E6 30.14R ELIZABETHTOWN CLOUDY 65 60 82 SE8 30.11R GOLDSBORO CLOUDY 63 63 100 E12 30.13S GREENVILLE CLOUDY 61 55 82 E7 30.18R HAVELOCK CLOUDY 63 57 81 E7 30.18R KENANSVILLE CLOUDY 63 56 80 CALM 30.15S KINSTON CLOUDY 63 57 82 E7 30.16R NEW BERN CLOUDY 63 57 81 E12 30.17R RICHLANDS CLOUDY 64 58 80 E7 30.15R ROCKY MOUNT CLOUDY 60 56 86 E3 30.16R WASHINGTON CLOUDY 60 53 79 E9 30.17R WHITEVILLE PTCLDY 65 60 82 E8 30.11R $$ AMZ130-135-150-152-154-156-158-170-250-252-270-ANZ085-086-088-633-658-670-010200- MARINE OBSERVATIONS STATION/POSITION TIME TEMP WIND PRES WAVE SWELL AIR SEA DIR/SP/G HT/PER HT/PER (UTC) (F) (DEG/KT/KT) (MB) (FT/S) (FT/S) CHESAPEAKE LIGHT 0000 52 60/ 16/ 17 1023.2 64 E VA BEACH 0050 53 53 30/ 12/ 14 1022.5 6/ 9 5/ 9 DUCK 0000 53 67 1021.8 2 E DUCK 0011 59 N/A 5/ 8 2/11 OREGON INLET 0000 54 62 1021.5 13E OREGON INLT 0100 56 N/A 5/10 5/10 HATTERAS CG 0000 58 69 1021.3 DIAMOND BUOY 0050 62 73 30/ 16/ 17 1021.6 6/10 3/10 CAPE LOOKOUT 0100 62 60/ 14/ 15 1021.2 BEAUFORT LAB 0000 63 67 1020.4 30 SE NEW RVR IN 0025 68 N/A 4/ 5 27 SE WRIGHTSVLE 0008 67 70 70/ 16/ 21 1019.9 5 SE WRIGHTSVLE 0008 66 68 90/ 17/ 21 1020.4 225 S CAPE HAT 0050 71 60/ 16/ 17 1019.2 5/ 8 3/ 8 41 SE CHARLESTON 0050 75 73 90/ 14/ 16 1017.5 3/ 5 2/ 8 $$

USA.gov is the U.S. government's official web portal to all federal, state and local government web resources and services.